User: anonymous
Location: Mentone
(34.5413°N, 85.5351°W)
Time: 22:21:10
(UTC-05:00)
Language:

Cosmos 2150 Rocket - Orbit

View from above orbital plane
View from above orbital plane
View from above satellite
View from above satellite

Ground track
Ground track

The orbit data is extracted from the following two-line orbital elements,

1 21419U 91041B   14112.97615271  .00000370  00000-0  14193-3 0  5097
2 21419 074.0412 244.6910 0040223 092.3200 047.3867 14.33512341195489
Epoch (UTC): 22 April 2014 23:25:39
Eccentricity: 0.0040223
inclination: 74.0412°
perigee height: 751 km
apogee height: 809 km
right ascension of ascending node: 244.6910°
argument of perigee: 92.3200°
revolutions per day: 14.33512341
mean anomaly at epoch: 47.3867°
orbit number at epoch: 19548

The dashed part of the orbit path shows where the satellite is in the earth's shadow,  

DLR